Location: Oregon Star Party
(44.2935°N, 120.1332°W)
Time: 10:14:46
(UTC-07:00)

Amateur Radio Satellites - All Passes

Search period start: 29 May 2016 09:44
Search period end: 30 May 2016 09:44
Location: Oregon Star Party, 44.2935°N, 120.1332°W

Satellite Date Start Highest point End Downlink Frequencies (MHz)
Time Altitude Azimuth
CINEMA 3 29 May 09:45:17 09:49:14 43° 289° (WNW) 09:53:10 145.822/145.860
Oscar 11 29 May 09:49:40 09:53:38 34° 97° (E) 09:57:36 145.826/435.025
COMPASS 1 29 May 09:52:32 09:56:45 73° 285° (WNW) 10:00:57 437.405
AAUSAT CUBESAT 2 29 May 09:53:07 09:57:21 88° 284° (WNW) 10:01:33 437.432
ZACube-1 29 May 10:07:31 10:11:35 46° 99° (E) 10:15:42 437.345
DELFI C3 29 May 10:07:41 10:11:02 25° 95° (E) 10:14:22 145.870
POLYITAN 1 29 May 10:08:19 10:08:48 10° 59° (ENE) 10:09:17 437.675
GONETS M04 29 May 10:14:17 10:22:31 49° 271° (W) 10:30:44
NANOSAT C BR1 29 May 10:18:41 10:20:30 13° 61° (ENE) 10:22:20 145.865
CUBEBUG 2 29 May 10:21:34 10:25:40 56° 287° (WNW) 10:29:47 437.445
CUSAT 1 29 May 10:23:13 10:27:22 17° 77° (ENE) 10:31:53 437.405
UNISAT 6 29 May 10:37:56 10:42:18 79° 257° (WSW) 10:46:36 437.425
Cosmos 2499 29 May 10:43:49 10:52:03 51° 271° (W) 11:00:29 435.465 / 435.565
FUNcube-1 29 May 10:44:28 10:48:40 73° 284° (WNW) 10:52:54 145.935
TIGRISAT 29 May 10:44:50 10:49:10 71° 257° (WSW) 10:53:27 435.000
UWE-3 29 May 10:46:07 10:50:05 44° 288° (WNW) 10:54:07 435.000/436.395/437.385
SEEDS 29 May 10:46:50 10:49:25 16° 297° (WNW) 10:52:01 437.485
AUBIESAT-1 29 May 10:49:26 10:50:07 10° 303° (WNW) 10:50:48 437.475
CANX-2 29 May 10:49:35 10:50:31 11° 300° (WNW) 10:51:27 2200.000
PCSat 29 May 10:53:58 10:59:02 40° 310° (NW) 11:04:10 145.827
DUCHIFAT 1 29 May 10:54:18 10:57:51 27° 67° (ENE) 11:01:23 145.980
BUGSAT 1 29 May 11:05:00 11:07:47 18° 64° (ENE) 11:10:34 437.445
O/OREOS (USA 219) 29 May 11:13:02 11:16:02 17° 309° (NW) 11:19:01 437.305
BEESAT 2 29 May 11:16:11 11:19:33 27° 115° (ESE) 11:22:57 435.950
ANTELSAT 29 May 11:19:51 11:23:37 29° 264° (W) 11:27:23 437.575/2403.000
HO-68 29 May 11:20:29 11:25:28 21° 307° (NW) 11:30:28 435.675
JAS-2 29 May 11:21:32 11:27:12 23° 55° (NE) 11:33:01 435.910
Oscar 11 29 May 11:26:07 11:29:37 24° 294° (WNW) 11:33:06 145.826/435.025
POPSAT HIP 1 29 May 11:34:00 11:38:13 78° 77° (ENE) 11:42:28 437.405
QB50P1 29 May 11:34:11 11:38:25 80° 74° (ENE) 11:42:40 145.935-145.965
HUMSAT D 29 May 11:34:18 11:38:29 78° 286° (WNW) 11:42:41 437.325/437.525
QB50P2 29 May 11:37:12 11:41:28 90° 347° (NNW) 11:45:43 145.880/145.840
POLYITAN 1 29 May 11:39:42 11:43:56 88° 255° (WSW) 11:48:11 437.675
DELFI C3 29 May 11:42:24 11:45:53 28° 291° (WNW) 11:49:21 145.870
ZACube-1 29 May 11:44:47 11:47:33 17° 296° (WNW) 11:50:21 437.345
BEESAT 3 29 May 11:46:18 11:50:14 83° 303° (WNW) 11:54:13 437.485
ESTCUBE 1 29 May 11:47:06 11:51:00 27° 95° (E) 11:54:51 437.505/2401.250
CUBEBUG 1 29 May 11:48:44 11:51:54 19° 92° (E) 11:55:02 437.445
DX 1 29 May 11:49:10 11:51:47 15° 91° (E) 11:54:21 434.975-435.025
50 SAT 29 May 11:50:29 11:53:15 20° 94° (E) 11:56:02 437.505
NANOSAT C BR1 29 May 11:51:29 11:55:42 70° 258° (WSW) 11:59:55 145.865
VELOX 1 29 May 12:00:45 12:04:24 25° 95° (E) 12:08:01 145.980
CUSAT 1 29 May 12:01:27 12:08:04 84° 98° (E) 12:16:01 437.405
SPROUT 29 May 12:07:43 12:09:15 12° 89° (E) 12:10:46 437.525
DANDE 29 May 12:14:43 12:20:20 54° 92° (E) 12:27:32 436.750
DUCHIFAT 1 29 May 12:29:48 12:33:28 28° 264° (W) 12:37:08 145.980
UKube-1 29 May 12:33:29 12:37:30 36° 98° (E) 12:41:29 .
AISAT 29 May 12:36:37 12:41:01 62° 101° (ESE) 12:45:21 437.250
BUGSAT 1 29 May 12:38:48 12:42:50 46° 261° (W) 12:46:52 437.445
PCSat 29 May 12:42:49 12:44:01 11° 333° (NNW) 12:45:14 145.827
BEESAT 2 29 May 12:53:43 12:57:19 32° 313° (NW) 13:00:56 435.950
JAS-2 29 May 13:03:43 13:11:12 88° 255° (WSW) 13:19:09 435.910
AO-85 29 May 13:05:02 13:08:26 18° 35° (NE) 13:11:37 145.980
Oscar 19 29 May 13:16:09 13:21:16 62° 72° (ENE) 13:26:25 437.125/150
50 SAT 29 May 13:23:44 13:27:02 30° 290° (WNW) 13:30:19 437.505
ESTCUBE 1 29 May 13:23:45 13:27:49 32° 292° (WNW) 13:31:49 437.505/2401.250
DX 1 29 May 13:24:02 13:28:18 53° 288° (WNW) 13:32:30 434.975-435.025
CUBEBUG 1 29 May 13:24:15 13:28:23 42° 290° (WNW) 13:32:28 437.445
BEESAT 3 29 May 13:26:38 13:28:34 13° 324° (NW) 13:30:32 437.485
Cosmos 2491 29 May 13:33:11 13:39:07 19° 58° (ENE) 13:44:57 435.465 / 435.565
AO-7 29 May 13:36:29 13:41:53 20° 46° (NE) 13:47:18 29.400- 29.500
VELOX 1 29 May 13:36:56 13:40:55 34° 292° (WNW) 13:44:53 145.980
SPROUT 29 May 13:41:25 13:45:38 67° 287° (WNW) 13:49:51 437.525
AIST 2 29 May 13:42:08 13:46:12 60° 121° (ESE) 13:50:17 435.215
CUSAT 1 29 May 13:45:57 13:51:19 23° 301° (WNW) 13:57:17 437.405
Gurwin Techsat 1B 29 May 13:55:40 14:00:54 62° 72° (ENE) 14:06:09 435.225
TISAT 1 29 May 13:57:43 14:01:48 50° 100° (E) 14:05:51 437.305
DANDE 29 May 13:58:23 14:03:43 30° 297° (WNW) 14:10:11 436.750
ITAMSAT 1 29 May 14:03:08 14:07:35 30° 65° (ENE) 14:12:05 435.822/435.867
SWISSCUBE 29 May 14:05:10 14:07:40 14° 90° (E) 14:10:09 437.505
UKube-1 29 May 14:09:57 14:13:21 23° 295° (WNW) 14:16:44 .
ITUPSAT 1 29 May 14:12:20 14:15:01 15° 90° (E) 14:17:41 437.325
AISAT 29 May 14:14:28 14:17:00 15° 299° (WNW) 14:19:31 437.250
BEESAT 29 May 14:33:31 14:37:25 24° 94° (E) 14:41:17 436.000
AO-85 29 May 14:44:52 14:49:36 83° 238° (WSW) 14:53:53 145.980
JAS-2 29 May 14:52:11 14:57:13 19° 275° (W) 15:02:28 435.910
Oscar 19 29 May 14:57:35 15:01:01 18° 269° (W) 15:04:28 437.125/150
AIST 2 29 May 15:22:02 15:25:03 19° 320° (NW) 15:28:05 435.215
HORYU 2 29 May 15:23:27 15:24:39 11° 58° (ENE) 15:25:50 437.375
AO-7 29 May 15:25:04 15:33:18 73° 67° (ENE) 15:41:37 29.400- 29.500
Cosmos 2491 29 May 15:28:38 15:37:27 83° 82° (E) 15:46:11 435.465 / 435.565
YUBILEINY 29 May 15:30:27 15:38:04 36° 85° (E) 15:45:43 435.215
TISAT 1 29 May 15:34:29 15:37:04 16° 297° (WNW) 15:39:38 437.305
Gurwin Techsat 1B 29 May 15:37:39 15:41:16 18° 269° (W) 15:44:55 435.225
SWISSCUBE 29 May 15:41:09 15:45:57 69° 286° (WNW) 15:50:43 437.505
ITAMSAT 1 29 May 15:42:11 15:46:56 37° 263° (W) 15:51:45 435.822/435.867
RS-15 29 May 15:42:31 15:50:19 22° 98° (E) 15:58:21 29.354- 29.394
ITUPSAT 1 29 May 15:48:32 15:53:19 66° 287° (WNW) 15:58:05 437.325
BEESAT 29 May 16:10:52 16:15:19 40° 291° (WNW) 16:19:47 436.000
PCSat 29 May 16:15:27 16:16:49 11° 28° (NNE) 16:18:11 145.827
KKS-1 29 May 16:30:13 16:34:30 46° 99° (E) 16:38:44 437.445
BRITE-PL 29 May 16:32:42 16:34:35 12° 55° (NE) 16:36:27 437.365/2234.400
NOAA 15 29 May 16:37:04 16:40:07 16° 58° (ENE) 16:43:10 137.62
Cubesat XI-IV 29 May 16:50:25 16:53:06 14° 57° (ENE) 16:55:47 437.490
HORYU 2 29 May 16:56:06 17:00:31 89° 271° (W) 17:04:57 437.375
STARS 29 May 16:59:47 17:04:02 48° 100° (E) 17:08:15 437.465
MOZHAYETS 4 29 May 17:01:38 17:06:18 78° 104° (ESE) 17:10:57
Cosmos 2504 29 May 17:03:02 17:09:29 36° 85° (E) 17:16:16 435.465 / 435.565
NOAA 18 29 May 17:05:18 17:09:32 24° 61° (ENE) 17:13:48 137.9125
AO-7 29 May 17:20:09 17:26:47 26° 267° (W) 17:33:29 29.400- 29.500
YUBILEINY 29 May 17:26:07 17:34:32 53° 285° (WNW) 17:43:02 435.215
Cosmos 2491 29 May 17:27:03 17:33:10 22° 282° (WNW) 17:39:16 435.465 / 435.565
CUTE-I 29 May 17:33:32 17:38:10 32° 65° (ENE) 17:42:50 437.470
RS-15 29 May 17:49:24 18:00:46 83° 121° (ESE) 18:12:50 29.354- 29.394
PCSat 29 May 17:56:38 18:01:46 41° 50° (NE) 18:06:52 145.827
O/OREOS (USA 219) 29 May 18:01:36 18:04:54 20° 53° (NE) 18:08:09 437.305
BRITE-PL 29 May 18:06:24 18:12:01 67° 73° (ENE) 18:17:40 437.365/2234.400
KKS-1 29 May 18:07:35 18:10:44 19° 297° (WNW) 18:13:53 437.445
NOAA 15 29 May 18:13:53 18:19:12 83° 256° (WSW) 18:24:34 137.62
HO-68 29 May 18:17:13 18:21:37 18° 51° (NE) 18:26:01 435.675
GOMX 1 29 May 18:19:46 18:24:57 45° 70° (ENE) 18:29:59 467.674
BEESAT 3 29 May 18:25:41 18:27:55 14° 37° (NE) 18:30:08 437.485
Cubesat XI-IV 29 May 18:27:05 18:32:24 89° 71° (ENE) 18:37:46 437.490
LilacSat-2 29 May 18:27:40 18:31:27 86° 81° (E) 18:35:16 437.200
AUBIESAT-1 29 May 18:29:37 18:29:55 10° 56° (ENE) 18:30:13 437.475
CUBESAT XI-V 29 May 18:33:12 18:37:58 81° 104° (ESE) 18:42:39 437.345
M-CUBED/EXP-1 PRIME 29 May 18:36:17 18:38:35 15° 60° (ENE) 18:40:48 437.505
STARS 29 May 18:37:05 18:40:02 18° 297° (WNW) 18:42:59 437.465
MOZHAYETS 4 29 May 18:40:38 18:42:51 13° 300° (WNW) 18:45:03
NOAA 18 29 May 18:44:31 18:49:51 53° 259° (W) 18:55:12 137.9125
Cosmos 2504 29 May 18:55:44 19:02:39 45° 287° (WNW) 19:10:02 435.465 / 435.565
DOVE 4 29 May 18:57:04 19:02:03 49° 71° (ENE) 19:06:48 437.250
CUTE 1.7 + AOD 2 29 May 18:58:39 19:00:41 13° 62° (ENE) 19:02:43 437.475
STRAND 1 29 May 19:11:30 19:14:54 17° 91° (E) 19:18:17 437.568
CINEMA 3 29 May 19:12:01 19:15:30 22° 66° (ENE) 19:18:54 145.822/145.860
CUTE-I 29 May 19:13:15 19:18:08 37° 263° (W) 19:23:02 437.470
YUBILEINY 29 May 19:31:33 19:33:49 11° 310° (NW) 19:36:07 435.215
BEESAT 2 29 May 19:32:20 19:35:54 30° 46° (NE) 19:39:27 435.950
PCSat 29 May 19:40:15 19:45:04 33° 249° (WSW) 19:49:51 145.827
O/OREOS (USA 219) 29 May 19:40:16 19:44:36 50° 252° (WSW) 19:48:55 437.305
CUBEBUG 2 29 May 19:46:33 19:49:00 15° 63° (ENE) 19:51:25 437.445
BRITE-PL 29 May 19:46:54 19:50:55 20° 271° (W) 19:54:57 437.365/2234.400
NOAA 15 29 May 19:58:32 19:59:46 11° 273° (W) 20:01:01 137.62
GOMX 1 29 May 19:58:33 20:03:08 27° 267° (W) 20:07:38 467.674
AUBIESAT-1 29 May 19:59:55 20:03:58 82° 252° (WSW) 20:07:44 437.475
HO-68 29 May 20:01:07 20:08:15 78° 71° (ENE) 20:15:25 435.675
BEESAT 3 29 May 20:02:11 20:06:10 86° 242° (WSW) 20:10:06 437.485
SEEDS 29 May 20:03:03 20:07:00 44° 72° (ENE) 20:11:01 437.485
RS-15 29 May 20:03:55 20:14:39 40° 329° (NNW) 20:25:56 29.354- 29.394
CANX-2 29 May 20:05:00 20:09:11 73° 76° (ENE) 20:13:25 2200.000
FUNcube-1 29 May 20:08:42 20:09:50 11° 60° (ENE) 20:10:58 145.935
M-CUBED/EXP-1 PRIME 29 May 20:08:50 20:12:52 52° 254° (WSW) 20:16:36 437.505
UWE-3 29 May 20:09:32 20:12:23 18° 65° (ENE) 20:15:13 435.000/436.395/437.385
Cubesat XI-IV 29 May 20:11:09 20:13:12 12° 272° (W) 20:15:16 437.490
CUBESAT XI-V 29 May 20:12:29 20:14:41 13° 301° (WNW) 20:16:50 437.345
AIST 2 29 May 20:25:11 20:26:49 12° 33° (NNE) 20:28:27 435.215
CUTE 1.7 + AOD 2 29 May 20:31:50 20:36:00 65° 259° (W) 20:40:13 437.475
ISS 29 May 20:34:43 20:37:28 25° 137° (SE) 20:40:13 145.825
DOVE 4 29 May 20:35:56 20:39:54 22° 267° (W) 20:43:47 437.250
PRISM 29 May 20:44:02 20:47:23 23° 94° (E) 20:50:42 437.425
COMPASS 1 29 May 20:44:24 20:48:33 89° 256° (WSW) 20:52:46 437.405
AAUSAT CUBESAT 2 29 May 20:44:31 20:48:38 73° 75° (ENE) 20:52:48 437.432
Oscar 11 29 May 20:45:55 20:49:44 32° 69° (ENE) 20:53:34 145.826/435.025
CINEMA 3 29 May 20:47:57 20:52:25 43° 262° (W) 20:56:43 145.822/145.860
STRAND 1 29 May 20:49:24 20:54:30 62° 288° (WNW) 20:59:34 437.568
CUSAT 1 29 May 20:55:02 20:59:33 16° 53° (NE) 21:03:42 437.405
DELFI C3 29 May 20:55:42 20:58:30 19° 65° (ENE) 21:01:19 145.870
AIST 1 29 May 20:59:07 21:03:18 45° 93° (E) 21:07:31
ZACube-1 29 May 21:04:49 21:08:48 44° 72° (ENE) 21:12:45 437.345
BEESAT 2 29 May 21:10:14 21:13:43 29° 244° (WSW) 21:17:11 435.950
DANDE 29 May 21:11:00 21:15:00 14° 51° (NE) 21:18:53 436.750
GONETS M04 29 May 21:20:37 21:28:40 43° 87° (E) 21:36:42
CUBEBUG 2 29 May 21:20:56 21:25:13 57° 259° (W) 21:29:25 437.445
Cosmos 2499 29 May 21:31:00 21:36:51 27° 81° (E) 21:43:03 435.465 / 435.565
PHONESAT 2.4 29 May 21:35:58 21:38:16 19° 158° (SSE) 21:40:36 2401.200-2431.200
SEEDS 29 May 21:40:12 21:42:57 17° 269° (W) 21:45:43 437.485
FUNcube-1 29 May 21:41:17 21:45:29 78° 258° (WSW) 21:49:39 145.935
UWE-3 29 May 21:44:27 21:48:33 45° 261° (W) 21:52:36 435.000/436.395/437.385
CANX-2 29 May 21:44:53 21:45:34 10° 272° (W) 21:46:16 2200.000
HO-68 29 May 21:51:35 21:56:41 21° 270° (W) 22:01:49 435.675
AIST 2 29 May 22:01:59 22:06:08 64° 53° (NE) 22:10:15 435.215
ISS 29 May 22:10:33 22:13:45 50° 335° (NNW) 22:16:57 145.825
PRISM 29 May 22:19:00 22:22:44 32° 292° (WNW) 22:26:27 437.425
RS-15 29 May 22:21:45 22:31:38 28° 3° (N) 22:41:47 29.354- 29.394
Oscar 11 29 May 22:22:22 22:25:54 24° 266° (W) 22:29:26 145.826/435.025
AAUSAT CUBESAT 2 29 May 22:24:34 22:24:38 10° 272° (W) 22:24:42 437.432
HUMSAT D 29 May 22:26:51 22:30:55 87° 75° (ENE) 22:35:02 437.325/437.525
UNISAT 6 29 May 22:28:42 22:31:44 18° 93° (E) 22:34:47 437.425
DELFI C3 29 May 22:29:24 22:33:06 38° 262° (W) 22:36:51 145.870
50 SAT 29 May 22:31:35 22:33:09 12° 63° (ENE) 22:34:44 437.505
TIGRISAT 29 May 22:35:13 22:38:26 20° 93° (E) 22:41:40 435.000
CUSAT 1 29 May 22:35:35 22:43:21 72° 77° (ENE) 22:49:39 437.405
AIST 1 29 May 22:38:08 22:41:09 18° 291° (WNW) 22:44:11
ZACube-1 29 May 22:42:34 22:45:19 17° 268° (W) 22:48:03 437.345
CUBEBUG 1 29 May 22:46:15 22:49:34 21° 65° (ENE) 22:52:53 437.445
DX 1 29 May 22:46:15 22:49:12 18° 63° (ENE) 22:52:09 434.975-435.025
ESTCUBE 1 29 May 22:48:04 22:52:01 31° 68° (ENE) 22:56:00 437.505/2401.250
DANDE 29 May 22:51:39 22:59:57 55° 73° (ENE) 23:07:19 436.750
VELOX 1 29 May 22:59:29 23:03:16 28° 67° (ENE) 23:07:04 145.980
SPROUT 29 May 23:03:12 23:05:00 12° 61° (ENE) 23:06:49 437.525
ANTELSAT 29 May 23:08:58 23:13:09 48° 99° (E) 23:17:23 437.575/2403.000
PHONESAT 2.4 29 May 23:11:39 23:14:35 39° 175° (S) 23:17:33 2401.200-2431.200
GONETS M04 29 May 23:17:04 23:25:24 46° 287° (WNW) 23:33:46
POPSAT HIP 1 29 May 23:19:39 23:20:47 11° 89° (E) 23:21:56 437.405
QB50P1 29 May 23:19:39 23:20:56 11° 89° (E) 23:22:13 145.935-145.965
Cosmos 2499 29 May 23:22:03 23:29:17 62° 283° (WNW) 23:37:08 435.465 / 435.565
QB50P2 29 May 23:22:17 23:24:15 13° 90° (E) 23:26:12 145.880/145.840
POLYITAN 1 29 May 23:24:43 23:26:44 13° 90° (E) 23:28:44 437.675
UKube-1 29 May 23:29:21 23:33:22 38° 69° (ENE) 23:37:23 .
SO-50 29 May 23:33:59 23:38:07 27° 114° (ESE) 23:42:15 436.795
AISAT 29 May 23:35:09 23:39:35 67° 74° (ENE) 23:44:02 437.250
NANOSAT C BR1 29 May 23:35:24 23:38:04 16° 92° (E) 23:40:42 145.865
AIST 2 29 May 23:41:59 23:44:06 14° 250° (WSW) 23:46:13 435.215
ISS 29 May 23:48:03 23:50:43 22° 355° (N) 23:53:22 145.825
50 SAT 30 May 00:02:54 00:06:27 51° 260° (W) 00:10:02 437.505
UNISAT 6 30 May 00:04:33 00:08:39 43° 289° (WNW) 00:12:47 437.425
TIGRISAT 30 May 00:11:16 00:15:17 39° 289° (WNW) 00:19:20 435.000
DUCHIFAT 1 30 May 00:11:46 00:15:40 37° 98° (E) 00:19:33 145.980
JAS-2 30 May 00:15:14 00:18:39 14° 82° (E) 00:21:54 435.910
CUSAT 1 30 May 00:18:57 00:24:29 23° 280° (W) 00:29:22 437.405
BUGSAT 1 30 May 00:19:34 00:22:39 21° 94° (E) 00:25:43 437.445
DX 1 30 May 00:20:45 00:25:01 50° 260° (W) 00:29:18 434.975-435.025
CUBEBUG 1 30 May 00:21:22 00:25:35 42° 262° (W) 00:29:49 437.445
ESTCUBE 1 30 May 00:24:53 00:28:48 28° 265° (W) 00:32:44 437.505/2401.250
DANDE 30 May 00:35:01 00:42:27 37° 274° (W) 00:49:09 436.750
VELOX 1 30 May 00:35:41 00:39:39 31° 264° (W) 00:43:38 145.980
SPROUT 30 May 00:36:06 00:40:23 73° 257° (WSW) 00:44:41 437.525
RS-15 30 May 00:36:42 00:48:20 46° 36° (NE) 01:00:01 29.354- 29.394
ANTELSAT 30 May 00:46:38 00:49:32 18° 296° (WNW) 00:52:28 437.575/2403.000
PHONESAT 2.4 30 May 00:48:10 00:51:02 33° 191° (SSW) 00:53:54 2401.200-2431.200
TISAT 1 30 May 00:50:39 00:54:41 46° 72° (ENE) 00:58:44 437.305
POPSAT HIP 1 30 May 00:52:52 00:57:03 69° 286° (WNW) 01:01:13 437.405
QB50P1 30 May 00:53:00 00:57:11 68° 286° (WNW) 01:01:20 145.935-145.965
QB50P2 30 May 00:56:17 01:00:26 59° 287° (WNW) 01:04:35 145.880/145.840
POLYITAN 1 30 May 00:58:47 01:02:55 58° 286° (WNW) 01:07:02 437.675
UKube-1 30 May 01:06:13 01:09:32 21° 266° (W) 01:12:52 .
NANOSAT C BR1 30 May 01:10:02 01:14:03 46° 288° (WNW) 01:18:03 145.865
SWISSCUBE 30 May 01:12:52 01:16:21 21° 63° (ENE) 01:19:50 437.505
SO-50 30 May 01:13:42 01:18:25 45° 312° (NW) 01:23:07 436.795
AISAT 30 May 01:14:27 01:16:30 13° 270° (W) 01:18:33 437.250
ITUPSAT 1 30 May 01:20:22 01:23:56 22° 63° (ENE) 01:27:33 437.325
Cosmos 2499 30 May 01:21:35 01:24:27 12° 308° (NW) 01:27:24 435.465 / 435.565
ISS 30 May 01:24:56 01:27:50 28° 15° (NNE) 01:30:44 145.825
Oscar 19 30 May 01:27:04 01:30:42 19° 91° (E) 01:34:18 437.125/150
YUBILEINY 30 May 01:38:18 01:44:20 20° 59° (ENE) 01:50:20 435.215
BEESAT 30 May 01:41:19 01:45:33 33° 67° (ENE) 01:49:50 436.000
DUCHIFAT 1 30 May 01:48:01 01:51:08 21° 295° (WNW) 01:54:15 145.980
BUGSAT 1 30 May 01:54:29 01:58:07 33° 291° (WNW) 02:01:42 437.445
JAS-2 30 May 01:57:35 02:05:04 77° 102° (ESE) 02:11:40 435.910
Gurwin Techsat 1B 30 May 02:10:59 02:15:00 21° 92° (E) 02:19:01 435.225
PHONESAT 2.4 30 May 02:25:46 02:27:15 13° 207° (SSW) 02:28:43 2401.200-2431.200
TISAT 1 30 May 02:27:52 02:30:35 17° 268° (W) 02:33:18 437.305
MOZHAYETS 4 30 May 02:31:49 02:32:57 11° 58° (ENE) 02:34:04
Cosmos 2491 30 May 02:38:35 02:44:19 20° 77° (ENE) 02:50:03 435.465 / 435.565
SWISSCUBE 30 May 02:49:11 02:53:48 50° 260° (W) 02:58:26 437.505
RS-15 30 May 02:49:35 03:01:48 73° 242° (WSW) 03:13:57 29.354- 29.394
Cosmos 2504 30 May 02:52:47 02:57:57 17° 58° (ENE) 03:03:13 435.465 / 435.565
ITUPSAT 1 30 May 02:56:53 03:01:28 47° 261° (W) 03:06:06 437.325
SO-50 30 May 02:58:16 03:00:08 12° 333° (NNW) 03:02:00 436.795
ISS 30 May 03:01:15 03:04:31 73° 215° (SW) 03:07:46 145.825
Oscar 19 30 May 03:05:20 03:10:24 57° 289° (WNW) 03:15:24 437.125/150
BEESAT 30 May 03:19:15 03:23:21 29° 265° (W) 03:27:29 436.000
AO-7 30 May 03:26:07 03:32:02 21° 90° (E) 03:37:55 29.400- 29.500
KKS-1 30 May 03:29:30 03:33:50 52° 72° (ENE) 03:38:11 437.445
YUBILEINY 30 May 03:33:45 03:42:34 85° 82° (E) 03:51:24 435.215
JAS-2 30 May 03:43:33 03:49:13 24° 304° (NW) 03:54:29 435.910
Gurwin Techsat 1B 30 May 03:50:05 03:55:16 53° 290° (WNW) 04:00:25 435.225
ITAMSAT 1 30 May 03:52:43 03:57:57 68° 103° (ESE) 04:03:09 435.822/435.867
STARS 30 May 03:57:40 04:01:57 53° 72° (ENE) 04:06:14 437.465
CUBESAT XI-V 30 May 04:03:55 04:05:43 12° 59° (ENE) 04:07:31 437.345
MOZHAYETS 4 30 May 04:04:48 04:09:21 86° 79° (E) 04:13:58
Cosmos 2491 30 May 04:31:01 04:39:53 90° 98° (E) 04:48:45 435.465 / 435.565
Cosmos 2504 30 May 04:44:22 04:52:52 73° 80° (E) 05:01:43 435.465 / 435.565
HORYU 2 30 May 04:46:40 04:49:17 15° 91° (E) 04:51:54 437.375
AO-85 30 May 05:00:08 05:04:38 27° 113° (ESE) 05:09:05 145.980
RS-15 30 May 05:04:42 05:12:01 18° 264° (W) 05:19:21 29.354- 29.394
KKS-1 30 May 05:07:51 05:10:42 17° 268° (W) 05:13:33 437.445
AO-7 30 May 05:17:22 05:25:48 88° 290° (WNW) 05:34:11 29.400- 29.500
YUBILEINY 30 May 05:32:11 05:38:14 21° 282° (WNW) 05:44:18 435.215
ITAMSAT 1 30 May 05:33:25 05:36:53 18° 300° (WNW) 05:40:20 435.822/435.867
STARS 30 May 05:35:57 05:38:37 16° 268° (W) 05:41:18 437.465
CUBESAT XI-V 30 May 05:37:41 05:42:22 88° 246° (WSW) 05:47:07 437.345
BRITE-PL 30 May 06:11:31 06:14:57 18° 89° (E) 06:18:11 437.365/2234.400
HORYU 2 30 May 06:21:50 06:26:11 55° 288° (WNW) 06:30:31 437.375
SO-50 30 May 06:25:02 06:26:00 11° 24° (NNE) 06:26:58 436.795
NOAA 15 30 May 06:27:46 06:32:31 32° 96° (E) 06:37:13 137.62
STRAND 1 30 May 06:28:36 06:32:59 30° 65° (ENE) 06:37:24 437.568
Cosmos 2491 30 May 06:31:37 06:38:02 22° 300° (WNW) 06:44:27 435.465 / 435.565
Cosmos 2504 30 May 06:38:52 06:45:30 26° 279° (W) 06:52:20 435.465 / 435.565
AO-85 30 May 06:39:34 06:44:54 53° 310° (NW) 06:50:06 145.980
Cubesat XI-IV 30 May 06:43:00 06:47:45 31° 96° (E) 06:52:30 437.490
NOAA 18 30 May 07:04:40 07:10:05 57° 102° (ESE) 07:15:28 137.9125
AIST 1 30 May 07:05:44 07:08:03 14° 67° (ENE) 07:10:21
AO-7 30 May 07:11:21 07:17:31 24° 311° (NW) 07:23:41 29.400- 29.500
Cosmos 2499 30 May 07:19:51 07:23:12 12° 53° (NE) 07:26:34 435.465 / 435.565
CUTE-I 30 May 07:27:57 07:33:21 78° 104° (ESE) 07:38:43 437.470
GONETS M04 30 May 07:28:53 07:35:27 23° 61° (ENE) 07:41:58
HO-68 30 May 07:30:04 07:32:47 12° 85° (E) 07:35:29 435.675
LilacSat-2 30 May 07:33:37 07:37:25 76° 283° (WNW) 07:41:12 437.200
PRISM 30 May 07:35:10 07:38:21 22° 65° (ENE) 07:41:33 437.425
BRITE-PL 30 May 07:48:55 07:53:52 53° 289° (WNW) 07:58:24 437.365/2234.400
CANX-2 30 May 07:50:32 07:52:03 12° 89° (E) 07:53:33 2200.000
GOMX 1 30 May 07:58:22 08:03:03 86° 283° (WNW) 08:07:23 467.674
SO-50 30 May 08:03:24 08:07:51 39° 46° (NE) 08:12:10 436.795
STRAND 1 30 May 08:07:22 08:12:03 36° 263° (W) 08:16:46 437.568
NOAA 15 30 May 08:07:29 08:12:17 35° 294° (WNW) 08:17:02 137.62
CUTE 1.7 + AOD 2 30 May 08:15:50 08:18:58 19° 92° (E) 08:22:05 437.475
O/OREOS (USA 219) 30 May 08:16:46 08:19:20 15° 99° (E) 08:21:54 437.305
Cubesat XI-IV 30 May 08:22:57 08:27:51 37° 293° (WNW) 08:32:45 437.490
AO-85 30 May 08:23:39 08:26:32 14° 330° (NNW) 08:29:23 145.980
COMPASS 1 30 May 08:27:16 08:29:20 13° 90° (E) 08:31:24 437.405
AAUSAT CUBESAT 2 30 May 08:28:03 08:28:44 10° 88° (E) 08:29:26 437.432
DOVE 4 30 May 08:32:14 08:36:37 81° 283° (WNW) 08:40:47 437.250
PCSat 30 May 08:40:42 08:45:03 25° 108° (ESE) 08:49:25 145.827
CINEMA 3 30 May 08:40:57 08:44:48 36° 97° (E) 08:48:38 145.822/145.860
AIST 1 30 May 08:41:47 08:46:04 57° 265° (W) 08:50:17
NOAA 18 30 May 08:46:08 08:50:21 23° 299° (WNW) 08:54:33 137.9125
CUTE-I 30 May 09:09:28 09:12:45 17° 302° (WNW) 09:16:01 437.470
PRISM 30 May 09:09:37 09:13:27 36° 262° (W) 09:17:20 437.425
Cosmos 2499 30 May 09:09:59 09:18:27 56° 76° (ENE) 09:27:08 435.465 / 435.565
CUBEBUG 2 30 May 09:10:21 09:13:46 24° 95° (E) 09:17:13 437.445
AUBIESAT-1 30 May 09:11:36 09:14:49 47° 106° (ESE) 09:18:03 437.475
HO-68 30 May 09:14:32 09:21:44 71° 104° (ESE) 09:28:53 435.675
SEEDS 30 May 09:20:35 09:24:51 71° 101° (E) 09:29:06 437.485
M-CUBED/EXP-1 PRIME 30 May 09:21:00 09:24:17 84° 110° (ESE) 09:27:34 437.505
CANX-2 30 May 09:24:05 09:28:21 68° 286° (WNW) 09:32:37 2200.000
GONETS M04 30 May 09:24:42 09:33:26 84° 264° (W) 09:42:07
FUNcube-1 30 May 09:28:27 09:31:14 17° 92° (E) 09:34:03 145.935
UNISAT 6 30 May 09:29:21 09:32:31 20° 65° (ENE) 09:35:41 437.425
UWE-3 30 May 09:32:17 09:35:58 29° 96° (E) 09:39:41 435.000/436.395/437.385
TIGRISAT 30 May 09:35:39 09:38:58 22° 66° (ENE) 09:42:17 435.000
GOMX 1 30 May 09:39:25 09:40:15 10° 304° (WNW) 09:41:05 467.674
